Content
SEND FEEDBACK

Daily
Averages
Monthly
Summary
United States of America

ALBANY, NEW YORK


Home > North America > United States > New York
Elevation: 275 feet     Latitude: 42 45N     Longitude: 073 48W

WEATHER
 
SELECT A DAY
Number of Records: 209,198;   Date Range: 1/1/95 - 10/20/14
 
SHARE

PRINT THIS DATA

[ ← Previous Day ]
WEATHER ALMANAC - FEBRUARY 1, 2013
[ Next Day → ]
[ °C ]   °F
Weather ElementAverageHighLow
Temperature22.1 °F26.1 °F (11:51 am)17.6 °F (11:25 pm)
Dewpoint9.3 °F17.1 °F (10:51 am)3.9 °F (4:51 pm)
Humidity58.8 %79 % (11:25 pm)46 % (3:51 pm)
Barometer29.93 in30.18 in (11:51 pm)29.69 in (1:51 am)
Wind Speed14.4 mph27.6 mph (11:51 am)
Wind Gust39.1 mph (1:51 pm)
Weather ElementAverage
Visibility8.6 mi
Wind DirectionWNW (276.7 °)

Weather ElementTotal
Precipitation---
Heating Degree Days43.2 (Base 65)
Averaged from 27 records on February 1, 2013
WEATHER CONDITIONS BREAKOUT
WIND DIRECTION BREAKOUT
WEATHER BY HOUR - FEBRUARY 1, 2013
[ °C ]   °F
Local TimeTemperatureDewpointHumidityBarometerVisibilityWind DirectionWind SpeedGust SpeedPrecipitationEventsConditions
1:51 AM24.1 °F14.0 °F65 %29.69 in10.0 miWSW (240°)11.5 mph18.4 mphPartly Cloudy
2:51 AM24.1 °F12.0 °F60 %29.70 in10.0 miWSW (240°)9.2 mph20.7 mphPartly Cloudy
3:51 AM24.1 °F9.0 °F53 %29.69 in10.0 miWSW (250°)12.7 mphMostly Cloudy
4:51 AM23.0 °F7.0 °F50 %29.71 in10.0 miWSW (250°)8.1 mphPartly Cloudy
5:51 AM23.0 °F6.1 °F48 %29.73 in10.0 miWSW (250°)8.1 mphPartly Cloudy
6:51 AM21.9 °F6.1 °F51 %29.77 in10.0 miWest (260°)6.9 mphScattered Clouds
7:51 AM21.0 °F6.1 °F53 %29.81 in10.0 miWest (260°)6.9 mphScattered Clouds
8:51 AM25.0 °F10.0 °F53 %29.83 in10.0 miWest (260°)17.3 mph24.2 mphMostly Cloudy
9:51 AM25.0 °F10.0 °F53 %29.86 in10.0 miWest (270°)15.0 mph24.2 mphMostly Cloudy
10:51 AM23.0 °F17.1 °F78 %29.88 in1.5 miNW (310°)16.1 mph23.0 mph0.00 inSnowLight Snow
11:08 AM23.0 °F12.2 °F63 %29.87 in10.0 miWNW (290°)13.8 mph25.3 mph0.00 inMostly Cloudy
11:51 AM26.1 °F10.9 °F53 %29.87 in10.0 miWNW (290°)27.6 mph32.2 mph0.00 inMostly Cloudy
12:51 PM25.0 °F9.0 °F51 %29.87 in10.0 miWNW (290°)20.7 mph31.1 mphMostly Cloudy
1:51 PM24.1 °F7.0 °F48 %29.89 in10.0 miWNW (290°)26.5 mph39.1 mphMostly Cloudy
2:51 PM24.1 °F8.1 °F51 %29.92 in10.0 miWNW (290°)16.1 mph27.6 mphMostly Cloudy
3:51 PM24.1 °F6.1 °F46 %29.96 in10.0 miWest (280°)20.7 mph27.6 mph0.00 inSnowLight Snow
4:51 PM21.9 °F3.9 °F46 %30.00 in10.0 miWNW (290°)18.4 mph29.9 mph0.00 inMostly Cloudy
5:51 PM21.0 °F3.9 °F48 %30.04 in10.0 miWNW (300°)18.4 mph26.5 mphScattered Clouds
6:51 PM19.9 °F7.0 °F57 %30.07 in10.0 miWest (280°)8.1 mphPartly Cloudy
7:51 PM19.9 °F9.0 °F62 %30.09 in10.0 miSW (230°)6.9 mph0.00 inSnowLight Snow
8:51 PM19.4 °F10.4 °F68 %30.09 in10.0 miWest (260°)12.7 mph21.9 mphSnowLight Snow
9:51 PM19.0 °F12.9 °F77 %30.12 in1.0 miWNW (300°)11.5 mph0.00 inSnowLight Snow
9:57 PM19.4 °F12.2 °F74 %30.11 in5.0 miWNW (300°)10.4 mph0.00 inSnowLight Snow
10:51 PM19.9 °F10.9 °F68 %30.15 in8.0 miWNW (300°)12.7 mph24.2 mph0.00 inSnowLight Snow
11:00 PM19.4 °F12.2 °F74 %30.14 in1.5 miWNW (300°)19.6 mph29.9 mph0.00 inSnowLight Snow
11:25 PM17.6 °F12.2 °F79 %30.15 in6.0 miWNW (290°)11.5 mph0.00 inSnowLight Snow
11:51 PM19.0 °F7.0 °F59 %30.18 in10.0 miWNW (300°)21.9 mph27.6 mph0.00 inScattered Clouds
Hourly data recorded from KALB, located miles away from Albany, New York







STORIES FROM OUR PARTNERS